Regional Weather Roundup
Issued by NWS

Home | Current Version | Previous Version | Graphics & Text | Print | Product List | Glossary Off
Versions: 1 2 3 4 5 6 7 8 9 10 11 12 13 14 15 16 17 18 19 20 21 22 23 24 25 26 27 28 29 30 31 32 33 34 35 36 37 38 39 40 41 42 43 44 45 46 47 48 49 50

960
ASUS43 KDMX 231701
RWRIA

WEATHER ROUNDUP FOR IOWA
NATIONAL WEATHER SERVICE DES MOINES IA
1200 PM CDT MON OCT 23 2017

NOTE: "FAIR" INDICATES FEW OR NO CLOUDS BELOW 12,000 FEET WITH NO
SIGNIFICANT WEATHER AND/OR OBSTRUCTIONS TO VISIBILITY.

* - THESE STATIONS ARE NOT NWS STATIONS...THUS NOT UNDER NWS
QUALITY CONTROL.  THEY ALSO DO NOT REPORT WEATHER SUCH
AS PRECIPITATION OR FOG.

IAZ001>003-012>014-020>022-031>034-043>046-231800-
   NORTHWEST IOWA

CITY           SKY/WX    TMP DP  RH WIND       PRES   REMARKS
DENISON *      CLOUDY    59  39  47 NW26      29.97R
LE MARS *      MOSUNNY   59  36  41 NW20G37   29.97F
ORANGE CITY *  SUNNY     59  39  47 NW24G35   29.96S
SHELDON *      SUNNY     59  36  41 NW24G37   29.92F
SIOUX CITY     SUNNY     60  39  45 NW25G35   29.98F
SPENCER        SUNNY     59  37  44 NW23G38   29.90S
STORM LAKE *   SUNNY     59  36  41 NW24G33   29.93S
$$

IAZ055>058-069>071-079>083-090>094-231800-
   SOUTHWEST IOWA

CITY           SKY/WX    TMP DP  RH WIND       PRES   REMARKS
ATLANTIC *     MOSUNNY   59  39  47 NW29G37   29.94S
AUDUBON *      MOSUNNY   57  41  54 NW13G24   29.95R
CLARINDA *     MOSUNNY   63  41  45 NW21G26   29.99R
COUNCIL BLFS * MOSUNNY   59  39  47 NW18G32   30.00R
CRESTON *      CLOUDY    57  39  51 NW22G31   29.95R
HARLAN  *      CLOUDY    59  41  51 NW23G31   29.99R
LAMONI         CLOUDY    63  43  48 N21G28    29.91R
RED OAK *      CLOUDY    63  37  39 NW21G31   29.97S
SHENANDOAH *   MOSUNNY   64  39  39 NW14G25   29.99S
$$

IAZ047>049-059>061-072>074-084-231800-
   CENTRAL IOWA

CITY           SKY/WX    TMP DP  RH WIND       PRES   REMARKS
AMES           LGT RAIN  59  44  57 N18G26    29.88R
ANKENY *       CLOUDY    61  41  48 N13G20    29.88S
BOONE *        PTSUNNY   55  45  67 NW17      29.88R
CHARITON *     SUNNY     64  41  42 NW20G25   29.86S
DES MOINES     CLOUDY    62  42  47 NW10      29.88R
GRINNELL*      CLOUDY    54  43  67 NW12      29.84F
KNOXVILLE *    PTSUNNY   59  39  47 N15G23    29.84S
MARSHALLTOWN   CLOUDY    54  43  66 NW12      29.83F
NEWTON *       CLOUDY    55  43  62 NW16G25   29.85S
PELLA *        CLOUDY    57  43  59 NW9G17    29.86S
$$

IAZ004>006-015-016-023>025-035-036-231800-
   NORTH CENTRAL IOWA

CITY           SKY/WX    TMP DP  RH WIND       PRES   REMARKS
ALGONA *       MOSUNNY   59  37  44 NW20G26   29.87F
CLARION *      CLOUDY    55  43  62 NW15      29.86S
ESTHERVILLE    SUNNY     57  36  45 NW18G31   29.87S
FORT DODGE *   CLOUDY    56  41  57 NW12G28   29.90R
MASON CITY     CLOUDY    54  41  61 NW15      29.86S
FOREST CITY *    N/A     55  41  58 NW10      29.86R
WEBSTER CITY * MOSUNNY   55  43  62 NW10G17   29.86S
IOWA FALLS *   LGT RAIN  55  43  63 NW8       29.85F
$$

IAZ007>011-017>019-026>030-037>042-050>054-066-231800-
   NORTHEAST IOWA

CITY           SKY/WX    TMP DP  RH WIND       PRES   REMARKS
CEDAR RAPIDS   MOSUNNY   55  43  63 W14       29.83R
CHARLES CITY * CLOUDY    54  41  62 NW7G15    29.83F
CLINTON *      CLOUDY    53  49  86 S7        29.84F
DECORAH *      CLOUDY    52  41  66 VRB5G12   29.78F
DUBUQUE        CLOUDY    54  44  69 S12       29.80F
MONTICELLO *   CLOUDY    54  45  71 SW12      29.82R
OELWEIN *      CLOUDY    52  46  82 NW17      29.81S
WATERLOO       CLOUDY    55  44  66 NW13      29.80F
$$

IAZ064-065-067-068-078-231800-
   EAST CENTRAL IOWA

CITY           SKY/WX    TMP DP  RH WIND       PRES   REMARKS
DAVENPORT      PTSUNNY   54  49  83 S5        29.86S
IOWA CITY      CLOUDY    56  45  66 W10       29.86R
MUSCATINE *    CLOUDY    55  46  71 SW8       29.85F
QUAD CITIES    CLOUDY    55  48  77 VRB3      29.85S
$$

IAZ062-063-075>077-085>089-095>099-231800-
   SOUTHEAST IOWA

CITY           SKY/WX    TMP DP  RH WIND       PRES   REMARKS
BURLINGTON     PTSUNNY   57  49  74 S7        29.85F
FAIRFIELD *    SUNNY     59  43  55 W9G21     29.85R
FORT MADISON * MOSUNNY   61  48  63 SW5       29.86F
KEOKUK *       SUNNY     63  46  55 W12       29.85F
OTTUMWA        MOSUNNY   56  43  61 NW14      29.85S
WASHINGTON *   PTSUNNY   57  46  67 W9G17     29.86R
$$

ABBREVIATIONS USED IN REMARKS
   TC - TEMPERATURES IN CELSIUS
  WCI - WIND CHILL INDEX
   HX - HEAT INDEX
  VSB - VISIBILITY
$$





USA.gov is the U.S. government's official web portal to all federal, state and local government web resources and services.